HB9KBJ-8 Weather Reports


Display with metric or nautical units.
time (UTC)temp
F
wind
direction
speed
MPH
gust
MPH
rain 1hr
in
rain 24hr
in
rain mn
in
humidity
%
barometer
mb
20260502214214 61 38 0.0 0.0 0.00 0.00 0.00 72 1017.5
20260502213714 61 38 0.0 0.0 0.00 0.00 0.00 72 1017.3
20260502213229 61 38 0.0 0.0 0.00 0.00 0.00 71 1017.3
20260502212728 61 38 0.0 0.0 0.00 0.00 0.00 70 1017.3
20260502212226 61 38 0.0 0.0 0.00 0.00 0.00 70 1017.3
20260502211720 61 38 0.0 0.0 0.00 0.00 0.00 71 1017.2
20260502211216 61 38 0.0 0.0 0.00 0.00 0.00 71 1017.2
20260502210733 61 38 0.0 0.0 0.00 0.00 0.00 71 1017.3
20260502210226 61 38 0.0 0.0 0.00 0.00 0.00 70 1017.2
20260502205718 61 38 0.0 0.0 0.00 0.00 0.00 71 1017.2
20260502205217 61 38 0.0 0.0 0.00 0.00 0.00 70 1017.2
20260502204734 62 38 0.0 0.0 0.00 0.00 0.00 69 1017.2
20260502204229 62 38 0.0 0.0 0.00 0.00 0.00 68 1017.2
20260502203723 62 38 0.0 0.0 0.00 0.00 0.00 67 1017.2
20260502203216 62 38 0.0 0.0 0.00 0.00 0.00 66 1017.2
20260502202729 62 38 0.0 0.0 0.00 0.00 0.00 67 1017.2
20260502202225 62 38 0.0 0.0 0.00 0.00 0.00 66 1017.2
20260502201722 63 38 0.0 0.0 0.00 0.00 0.00 65 1017.2
20260502201216 63 38 0.0 0.0 0.00 0.00 0.00 63 1017.3
20260502200716 63 38 0.0 0.0 0.00 0.00 0.00 63 1017.3
20260502200216 63 38 0.0 0.0 0.00 0.00 0.00 63 1017.3
20260502195716 64 38 0.0 0.0 0.00 0.00 0.00 63 1017.2
20260502195216 64 38 0.0 0.0 0.00 0.00 0.00 62 1017.2
20260502194717 64 38 0.0 0.0 0.00 0.00 0.00 63 1017.2
20260502194236 64 38 0.0 0.0 0.00 0.00 0.00 63 1017.1
20260502193724 65 38 0.0 0.0 0.00 0.00 0.00 62 1017.1
20260502193220 65 38 0.0 0.0 0.00 0.00 0.00 61 1017.1
20260502192716 66 38 0.0 0.0 0.00 0.00 0.00 59 1017.1
20260502192229 66 38 0.0 0.0 0.00 0.00 0.00 59 1017.1
20260502191725 65 38 0.0 0.0 0.00 0.00 0.00 60 1017.0
20260502191217 65 38 0.0 0.0 0.00 0.00 0.00 61 1017.0
20260502190716 65 38 0.0 0.0 0.00 0.00 0.00 62 1017.0
20260502190231 65 38 0.0 0.0 0.00 0.00 0.00 62 1016.9
20260502185725 65 38 0.0 0.0 0.00 0.00 0.00 62 1016.8
20260502185216 65 38 0.0 0.0 0.00 0.00 0.00 62 1016.8
20260502184725 65 38 0.0 0.0 0.00 0.00 0.00 61 1016.8
20260502184234 66 38 0.0 0.0 0.00 0.00 0.00 61 1016.8
20260502183725 66 38 0.0 0.0 0.00 0.00 0.00 62 1016.6
20260502183225 66 38 0.0 0.0 0.00 0.00 0.00 61 1016.6
20260502182721 67 38 0.0 0.0 0.00 0.00 0.00 60 1016.6
20260502182215 67 38 0.0 0.0 0.00 0.00 0.00 59 1016.6
20260502181730 68 38 0.0 0.0 0.00 0.00 0.00 58 1016.7
20260502181223 68 38 0.0 0.0 0.00 0.00 0.00 57 1016.7
20260502180733 68 38 0.0 0.0 0.00 0.00 0.00 60 1016.7
20260502180234 68 38 0.0 0.0 0.00 0.00 0.00 59 1016.6
20260502170218 74 38 0.0 0.0 0.00 0.00 0.00 49 1016.6
20260502164236 76 38 0.0 0.0 0.00 0.00 0.00 42 1016.6
20260502163730 77 38 0.0 0.0 0.00 0.00 0.00 38 1016.8
20260502163228 77 38 0.0 0.0 0.00 0.00 0.00 38 1016.8
20260502162727 77 38 0.0 0.0 0.00 0.00 0.00 37 1016.8
20260502162226 76 38 0.0 0.0 0.00 0.00 0.00 37 1016.9
20260502161726 76 38 0.0 0.0 0.00 0.00 0.00 38 1017.0
20260502161226 76 38 0.0 0.0 0.00 0.00 0.00 37 1017.0
20260502160721 76 38 0.0 0.0 0.00 0.00 0.00 38 1017.1
20260502160213 77 38 0.0 0.0 0.00 0.00 0.00 37 1017.1
20260502152223 79 38 0.0 0.0 0.00 0.00 0.00 34 1017.5
20260502151716 79 38 0.0 0.0 0.00 0.00 0.00 36 1017.5
20260502151232 79 38 0.0 0.0 0.00 0.00 0.00 35 1017.5
20260502150727 79 38 0.0 0.0 0.00 0.00 0.00 36 1017.6
20260502150228 78 38 0.0 0.0 0.00 0.00 0.00 36 1017.7
20260502130723 76 355 0.0 0.0 0.00 0.00 0.00 38 1019.5
20260502130221 79 355 0.0 0.0 0.00 0.00 0.00 38 1019.5
20260502123729 76 355 0.0 0.0 0.00 0.00 0.00 42 1019.9
20260502123222 77 355 0.0 0.0 0.00 0.00 0.00 41 1019.9
20260502122720 78 355 0.0 0.0 0.00 0.00 0.00 41 1020.1
20260502122232 76 355 0.0 0.0 0.00 0.00 0.00 44 1020.1
20260502121727 74 355 0.0 0.0 0.00 0.00 0.00 44 1020.1
20260502121224 75 355 0.0 0.0 0.00 0.00 0.00 44 1020.3
20260502120715 74 355 0.0 0.0 0.00 0.00 0.00 46 1020.3
20260502120234 74 355 0.0 0.0 0.00 0.00 0.00 46 1020.4
20260502115726 73 355 0.0 0.0 0.00 0.00 0.00 47 1020.5
20260502115218 73 351 0.0 0.0 0.00 0.00 0.00 46 1020.7
20260502114735 73 351 0.0 0.0 0.00 0.00 0.00 46 1020.6
20260502114226 74 351 0.0 0.0 0.00 0.00 0.00 46 1020.7
20260502113721 72 351 0.0 0.0 0.00 0.00 0.00 47 1020.8
20260502113216 73 351 0.0 0.0 0.00 0.00 0.00 45 1020.9
20260502112731 73 351 0.0 0.0 0.00 0.00 0.00 47 1021.0
20260502112225 73 351 0.0 0.0 0.00 0.00 0.00 47 1021.1
20260502111719 73 351 0.0 0.0 0.00 0.00 0.00 46 1021.2
20260502111219 73 351 0.0 0.0 0.00 0.00 0.00 45 1021.3
20260502110731 74 351 0.0 0.0 0.00 0.00 0.00 45 1021.4
20260502110227 71 351 0.0 0.0 0.00 0.00 0.00 49 1021.5
20260502105735 73 351 0.0 0.0 0.00 0.00 0.00 47 1021.5
20260502105230 70 351 0.0 0.0 0.00 0.00 0.00 50 1021.6
20260502104720 70 351 0.0 0.0 0.00 0.00 0.00 52 1021.7
20260502104215 71 351 0.0 0.0 0.00 0.00 0.00 50 1021.8
20260502103730 70 351 0.0 0.0 0.00 0.00 0.00 51 1021.9
20260502103222 69 351 0.0 0.0 0.00 0.00 0.00 52 1021.9
20260502102719 69 351 0.0 0.0 0.00 0.00 0.00 51 1022.0
20260502102220 69 351 0.0 0.0 0.00 0.00 0.00 51 1022.1
20260502101724 69 351 0.0 0.0 0.00 0.00 0.00 52 1022.2
20260502101221 68 351 0.0 0.0 0.00 0.00 0.00 52 1022.3
20260502100715 69 351 0.0 0.0 0.00 0.00 0.00 52 1022.3
20260502100232 68 351 0.0 0.0 0.00 0.00 0.00 54 1022.4
20260502091228 67 351 0.0 0.0 0.00 0.00 0.00 55 1023.1
20260502090721 64 351 0.0 0.0 0.00 0.00 0.00 60 1023.2
20260502090236 65 351 0.0 0.0 0.00 0.00 0.00 57 1023.3
20260502071215 54 44 0.0 0.0 0.00 0.00 0.00 73 1023.9
20260502070719 54 44 0.0 0.0 0.00 0.00 0.00 71 1023.9
20260502070217 55 44 0.0 0.0 0.00 0.00 0.00 70 1024.0
20260502065732 57 44 0.0 0.0 0.00 0.00 0.00 68 1024.1
20260502065223 55 44 0.0 0.0 0.00 0.00 0.00 74 1024.1
20260502064736 55 44 0.0 0.0 0.00 0.00 0.00 72 1024.2
20260502064214 55 44 0.0 0.0 0.00 0.00 0.00 71 1024.3
20260502063730 55 44 0.0 0.0 0.00 0.00 0.00 72 1024.2
20260502063229 55 44 0.0 0.0 0.00 0.00 0.00 74 1024.2
20260502062726 54 44 0.0 0.0 0.00 0.00 0.00 76 1024.2
20260502062222 52 44 0.0 0.0 0.00 0.00 0.00 78 1024.1
20260502061735 52 44 0.0 0.0 0.00 0.00 0.00 79 1024.2
20260502061227 51 44 0.0 0.0 0.00 0.00 0.00 81 1024.2
20260502060725 49 44 0.0 0.0 0.00 0.00 0.00 80 1024.2
20260502060227 49 44 0.0 0.0 0.00 0.00 0.00 80 1024.2
20260502055721 50 44 0.0 0.0 0.00 0.00 0.00 82 1024.2
20260502055215 49 44 0.0 0.0 0.00 0.00 0.00 83 1024.1
20260502054730 49 44 0.0 0.0 0.00 0.00 0.00 84 1024.2
20260502054228 48 44 0.0 0.0 0.00 0.00 0.00 85 1024.2
20260502053726 48 44 0.0 0.0 0.00 0.00 0.00 85 1024.2
20260502053227 47 44 0.0 0.0 0.00 0.00 0.00 85 1024.2
20260502052722 47 44 0.0 0.0 0.00 0.00 0.00 85 1024.2
20260502052218 46 44 0.0 0.0 0.00 0.00 0.00 85 1024.2
20260502051731 46 44 0.0 0.0 0.00 0.00 0.00 85 1024.2
20260502051230 45 44 0.0 0.0 0.00 0.00 0.00 85 1024.2
20260502050730 45 44 0.0 0.0 0.00 0.00 0.00 85 1024.1
20260502050223 45 44 0.0 0.0 0.00 0.00 0.00 85 1024.1
20260502045721 45 44 0.0 0.0 0.00 0.00 0.00 85 1024.1
20260502045215 45 44 0.0 0.0 0.00 0.00 0.00 85 1024.2
20260502044728 44 44 0.0 0.0 0.00 0.00 0.00 85 1024.2
20260502044225 44 44 0.0 0.0 0.00 0.00 0.00 85 1024.1
20260502043721 44 44 0.0 0.0 0.00 0.00 0.00 85 1024.1
20260502043234 44 44 0.0 0.0 0.00 0.00 0.00 85 1024.1
20260502042725 44 44 0.0 0.0 0.00 0.00 0.00 85 1024.0
20260502042214 44 44 0.0 0.0 0.00 0.00 0.00 85 1024.0
20260502041715 44 44 0.0 0.0 0.00 0.00 0.00 85 1024.0
20260502041212 44 44 0.0 0.0 0.00 0.00 0.00 85 1024.0
20260502040730 44 44 0.0 0.0 0.00 0.00 0.00 85 1024.0
20260502040227 44 44 0.0 0.0 0.00 0.00 0.00 85 1024.0
20260502035719 44 44 0.0 0.0 0.00 0.00 0.00 85 1024.0
20260502035230 44 44 0.0 0.0 0.00 0.00 0.00 85 1024.0
20260502034728 44 44 0.0 0.0 0.00 0.00 0.00 84 1023.9
20260502034226 44 44 0.0 0.0 0.00 0.00 0.00 84 1024.0
20260502033725 44 44 0.0 0.0 0.00 0.00 0.00 84 1024.0
20260502033236 45 44 0.0 0.0 0.00 0.00 0.00 84 1024.0
20260502032727 45 44 0.0 0.0 0.00 0.00 0.00 84 1024.0
20260502032223 45 44 0.0 0.0 0.00 0.00 0.00 84 1024.0
20260502031721 45 44 0.0 0.0 0.00 0.00 0.00 84 1024.0
20260502031220 45 44 0.0 0.0 0.00 0.00 0.00 84 1023.9
20260502030723 45 44 0.0 0.0 0.00 0.00 0.00 84 1023.9
20260502030224 45 44 0.0 0.0 0.00 0.00 0.00 84 1023.9
20260502025734 45 44 0.0 0.0 0.00 0.00 0.00 84 1024.0
20260502025225 45 44 0.0 0.0 0.00 0.00 0.00 83 1024.0
20260502024713 45 44 0.0 0.0 0.00 0.00 0.00 83 1024.1
20260502024230 45 44 0.0 0.0 0.00 0.00 0.00 84 1024.0
20260502023727 45 44 0.0 0.0 0.00 0.00 0.00 83 1024.1
20260502023221 45 44 0.0 0.0 0.00 0.00 0.00 83 1024.1
20260502022731 45 44 0.0 0.0 0.00 0.00 0.00 83 1024.1
20260502022225 45 44 0.0 0.0 0.00 0.00 0.00 83 1024.1
20260502021718 45 44 0.0 0.0 0.00 0.00 0.00 83 1024.1
20260502021223 45 44 0.0 0.0 0.00 0.00 0.00 82 1024.1
20260502020736 46 44 0.0 0.0 0.00 0.00 0.00 82 1024.1
20260502020220 46 44 0.0 0.0 0.00 0.00 0.00 82 1024.0
20260502015713 46 44 0.0 0.0 0.00 0.00 0.00 81 1024.0
20260502015231 46 44 0.0 0.0 0.00 0.00 0.00 81 1024.0
20260502014728 46 44 0.0 0.0 0.00 0.00 0.00 81 1024.0
20260502014224 46 44 0.0 0.0 0.00 0.00 0.00 81 1024.0
20260502013722 46 44 0.0 0.0 0.00 0.00 0.00 80 1024.0
20260502013235 47 44 0.0 0.0 0.00 0.00 0.00 80 1024.0
20260502012730 47 44 0.0 0.0 0.00 0.00 0.00 80 1024.0
20260502012224 47 44 0.0 0.0 0.00 0.00 0.00 80 1024.0
20260502011720 47 44 0.0 0.0 0.00 0.00 0.00 81 1024.0
20260502011215 47 44 0.0 0.0 0.00 0.00 0.00 80 1023.9
20260502010732 47 44 0.0 0.0 0.00 0.00 0.00 80 1024.0
20260502010224 47 44 0.0 0.0 0.00 0.00 0.00 80 1024.0
20260502005721 47 44 0.0 0.0 0.00 0.00 0.00 80 1023.9
20260502005215 47 44 0.0 0.0 0.00 0.00 0.00 80 1024.0
20260502004727 47 44 0.0 0.0 0.00 0.00 0.00 80 1023.9
20260502004226 47 44 0.0 0.0 0.00 0.00 0.00 79 1023.9
20260502003716 47 44 0.0 0.0 0.00 0.00 0.00 79 1023.9
20260502003227 48 44 0.0 0.0 0.00 0.00 0.00 79 1023.9
20260502002722 48 44 0.0 0.0 0.00 0.00 0.00 78 1023.9
20260502002233 48 44 0.0 0.0 0.00 0.00 0.00 77 1023.9
20260502001725 48 44 0.0 0.0 0.00 0.00 0.00 76 1024.0
20260502001222 49 44 0.0 0.0 0.00 0.00 0.00 76 1024.0
20260502000714 49 44 0.0 0.0 0.00 0.00 0.00 76 1024.0
20260502000226 49 44 0.0 0.0 0.00 0.00 0.00 75 1024.0
20260501235715 49 44 0.0 0.0 0.00 0.00 0.00 75 1024.0
20260501235215 49 44 0.0 0.0 0.00 0.00 0.00 75 1024.0
20260501234716 49 44 0.0 0.0 0.00 0.00 0.00 75 1024.1
20260501234232 50 44 0.0 0.0 0.00 0.00 0.00 75 1024.0
20260501233727 49 44 0.0 0.0 0.00 0.00 0.00 76 1024.0
20260501233221 49 44 0.0 0.0 0.00 0.00 0.00 76 1023.9
20260501232730 49 44 0.0 0.0 0.00 0.00 0.00 77 1024.0
20260501232227 49 44 0.0 0.0 0.00 0.00 0.00 76 1023.9
20260501231722 50 44 0.0 0.0 0.00 0.00 0.00 74 1023.9
20260501231223 50 44 0.0 0.0 0.00 0.00 0.00 72 1023.9
20260501230721 50 44 0.0 0.0 0.00 0.00 0.00 72 1023.9
20260501230235 50 44 0.0 0.0 0.00 0.00 0.00 72 1023.8
20260501225726 50 44 0.0 0.0 0.00 0.00 0.00 73 1023.8
20260501225221 50 44 0.0 0.0 0.00 0.00 0.00 75 1023.8
20260501224735 50 44 0.0 0.0 0.00 0.00 0.00 74 1023.8
20260501224224 50 44 0.0 0.0 0.00 0.00 0.00 73 1023.7
20260501223716 51 44 0.0 0.0 0.00 0.00 0.00 72 1023.7
20260501223229 51 44 0.0 0.0 0.00 0.00 0.00 72 1023.7
20260501222729 51 44 0.0 0.0 0.00 0.00 0.00 73 1023.7
20260501222225 51 44 0.0 0.0 0.00 0.00 0.00 72 1023.6
20260501221717 51 44 0.0 0.0 0.00 0.00 0.00 71 1023.7
20260501221227 52 44 0.0 0.0 0.00 0.00 0.00 71 1023.6
20260501220717 52 44 0.0 0.0 0.00 0.00 0.00 69 1023.6
20260501220224 52 44 0.0 0.0 0.00 0.00 0.00 70 1023.6
20260501215718 52 44 0.0 0.0 0.00 0.00 0.00 69 1023.6
20260501215217 53 44 0.0 0.0 0.00 0.00 0.00 69 1023.7
20260501214720 53 44 0.0 0.0 0.00 0.00 0.00 66 1023.7